STARLINK-1527, 46048

Orbit data source: Space-Track

STARLINK-1527, 46048 is a payload satellite owned by SpaceX/Seattle (US) in LEO that was launched on Fri, 07 Aug 2020 UTC via an FALCON 9 launch vehicle from the Air Force Eastern Test Range (AFETR). Payload-class satellites include a variety of spacecraft equipped with specific instruments for various scientific and technological missions. These include communications satellites like Starlink; space stations such as the ISS; scientific satellites like the Hubble; Earth observation satellites from companies like Planet Labs, Umbra, and HawkEye 360; GPS; miniature CubeSats for education and research; and military/defense satellites.

Loading next visibility...
Identifier
46048, 2020-055X
Orbit
LEO
Country
Flag of USUS
Related business
Manufacturer
SpaceX/Seattle
Mission
Operational Commercial Communications
Bus & Motor
STARLINK, Unknown motor
Mass
260 kg wet, ~248 kg dry
Launch date (UTC)
2020-08-07 (5 years ago)
Launch vehicle
FALCON 9
Launch site
Air Force Eastern Test Range (AFETR)
Object type
Payload
Rocket body
Debris
Shape & HBR
Box + 1 Pan, 10.1 m
Radar Cross Section
13.562 m², Large (>1 m²)

Expand to show TLE details & history
Last TLE update: 19 hours ago

TLE from 19 hours ago
0 STARLINK-1527
1 46048U 20055X   25291.28670041  .00001084  00000-0  91647-4 0  9995
2 46048  53.0526  35.8897 0001322  90.5119 269.6022 15.06402721287549
Epoch: 2025-10-18T06:52Z
TLE epoch observation values (Epoch: 2025-10-18T06:52:50.915Z)
Latitude
0.00003°
Longitude
-94.34232°
Altitude
548.089 km
Speed
7.589 km/s
True Right ascension
02h 23m 33s
True Declination
0° 00' 00"
Sunlit
Object was in full shadow at epoch
Visualization orbit readout
Latitude
Unknown
Longitude
Unknown
Altitude
Unknown
Speed
Unknown
Apparent Right ascension
Unknown
Apparent Declination
Unknown
Sunlit
N/A
Visualization observer readout
Local Sidereal Time
20:35:46
Azimuth
Unknown
Elevation
Unknown
Doppler factor
Unknown
Orbital elements
Apogee altitude
548.39 km
Perigee altitude
546.559 km
Semi-major axis
6,925.611 km
Eccentricity
0.00013
Inclination
53.0526°
RAAN
35.8897°
Arg. of periapsis
90.5119°
True anomaly
269.58705°
Mean anomaly
269.6022°
Eccentric anomaly
269.59463°
Mean motion
3.76579 °/min
Orbital period
95.6 mins
BSTAR
0.000091647
Loading maneuver chart data...
Computing Atmospheric mass density...
Loading historical data...
Loading historical data...
Loading historical data...
Loading historical data...
Loading historical data...
Loading historical data...
Loading historical data...

Documentation

Showing up to 5 results
|